Flag for Germany Weather past 2 weeks in Pirmasens, Rhineland-Palatinate, Germany

Now
73 °F

Passing clouds.


Feels Like: 76 °F
Forecast: 53 / 75 °F
Wind: 3 mph from North

Location: Zweibrucken - Rheinland-Pfalz

Current Time: Jul 31, 2014 at 2:17:09 PM

Latest Report: Jul 31, 2014 at 1:20 PM


Visibility: N/A

Pressure: 30.01 "Hg

Humidity: 65%

Dew point: 61 °F

Location of PirmasensLocation

Historic Weather in Pirmasens — Graph

°F

Pirmasens temperature yesterday

Maximum temperature yesterday: 72 °F (at 4:50 PM)
Minimum temperature yesterday: 63 °F (at 12:50 AM)
Average temperature yesterday: 67 °F

Past Weeks' High & Low Weather Summary

 TemperatureHumidityPressure
High90 °F (Jul 19, 3:20 PM)100% (Jul 21, 7:50 AM)30.21 "Hg (Jul 21, 7:50 AM)
Low59 °F (Jul 17, 4:20 AM)35% (Jul 18, 6:50 PM)29.80 "Hg (Jul 29, 7:50 AM)
Average71 °F71%29.96 "Hg
* Reported Jul 16 12:20 PM — Jul 31 12:50 PM, Pirmasens, Weather by CustomWeather, © 2014

Note: Actual official high and low records may vary slightly from our data, if they occured in-between our weather recording intervals... More about our weather records

Advertising

Pirmasens weather history for previous 24 hours

 ConditionsComfort  
Time TempWeatherWind HumidityBarometerVisibility
12:50 PM
Jul 31
70 °FSunny.3 mph60%30.04 "Hg10 mi
12:20 PM70 °FSunny.3 mph64%30.04 "Hg10 mi
11:50 AM70 °FBroken clouds.5 mph64%30.04 "HgN/A
11:20 AM70 °FBroken clouds.2 mph73%30.04 "HgN/A
10:50 AM70 °FScattered clouds.3 mph73%30.04 "HgN/A
10:20 AM68 °FSunny.3 mph73%30.04 "Hg10 mi
9:50 AM68 °FSunny.3 mph78%30.04 "Hg10 mi
9:20 AM66 °FSunny.2 mph83%30.04 "Hg10 mi
8:50 AM63 °FSunny.2 mph83%30.04 "Hg10 mi
8:20 AM64 °FSunny.2 mph83%30.04 "Hg10 mi
7:50 AM61 °FClear.3 mph88%30.04 "Hg10 mi
4:50 AM61 °FClear.1 mph88%30.01 "Hg10 mi
4:20 AM63 °FClear.3 mph83%30.01 "Hg10 mi
3:50 AM63 °FClear.3 mph83%30.01 "Hg10 mi
3:20 AM61 °FClear.2 mph88%30.01 "Hg10 mi
1:20 AM63 °FClear.1 mph83%30.01 "Hg10 mi
12:50 AM64 °FClear.5 mph73%30.01 "Hg10 mi
12:20 AM64 °FClear.5 mph73%30.01 "Hg10 mi
9:50 PM
Jul 30
68 °FSunny.6 mph69%29.98 "Hg10 mi
9:20 PM68 °FSunny.5 mph69%29.98 "Hg10 mi
8:50 PM68 °FSunny.5 mph73%29.95 "Hg10 mi
8:20 PM70 °FBroken clouds.7 mph69%29.95 "HgN/A
7:50 PM70 °FBroken clouds.9 mph69%29.95 "HgN/A
7:20 PM70 °FCloudy.5 mph73%29.92 "HgN/A
6:50 PM70 °FPartly sunny.6 mph73%29.92 "HgN/A
6:20 PM70 °FBroken clouds.8 mph73%29.92 "HgN/A
5:50 PM72 °FBroken clouds.9 mph69%29.92 "HgN/A
5:20 PM72 °FPartly sunny.8 mph69%29.92 "HgN/A
4:50 PM72 °FBroken clouds.8 mph73%29.92 "HgN/A
4:20 PM70 °FBroken clouds.8 mph78%29.92 "HgN/A
3:50 PM70 °FPartly sunny.12 mph73%29.92 "HgN/A
3:20 PM70 °FPartly sunny.10 mph78%29.92 "HgN/A
2:50 PM70 °FBroken clouds.9 mph78%29.92 "HgN/A
2:20 PM68 °FBroken clouds.10 mph83%29.89 "HgN/A
Weather by CustomWeather, © 2014

See weather overviewHow to use our weather pages